GW2352 Weather Reports


time (UTC)temp
F
wind
direction
speed
knots
gust
knots
rain 1hr
in
rain 24hr
in
rain mn
in
humidity
%
barometer
mb
20260504110248 63 261 3.5 6.1 0.00 0.24 0.24 79 1014.8
20260504100211 61 274 4.3 9.6 0.00 0.19 0.19 81 1014.9
20260504090134 56 148 3.5 6.1 0.00 0.19 0.19 97 1015.4
20260504081604 54 281 1.7 5.2 0.12 0.16 0.16 94 1015.5
20260504081100 53 307 3.5 5.2 0.78 0.15 0.15 92 1015.5
20260504080557 55 328 4.3 5.2 0.73 0.14 0.14 90 1015.5
20260504050404 60 166 6.1 7.8 0.00 0.00 0.00 66 1014.1
20260504045901 60 164 1.7 2.6 0.00 0.00 0.00 68 1014.0
20260504045356 60 165 0.9 1.7 0.00 0.00 0.00 70 1014.0
20260504044853 60 167 2.6 6.1 0.00 0.00 0.00 69 1014.1
20260504044350 59 149 0.9 0.9 0.00 0.00 0.00 70 1014.0
20260504043848 59 192 0.9 1.7 0.00 0.00 0.00 71 1013.8
20260504043344 59 146 0.0 0.9 0.00 0.00 0.00 72 1013.9
20260504042842 58 143 0.0 0.9 0.00 0.00 0.00 72 1014.0
20260504042338 58 164 1.7 1.7 0.00 0.00 0.00 71 1013.9
20260504041834 58 143 0.9 1.7 0.00 0.00 0.00 71 1014.1
20260504041331 58 165 0.9 0.9 0.00 0.00 0.00 72 1013.7
20260504040827 58 153 0.0 0.0 0.00 0.00 0.00 72 1013.9
20260504040325 57 286 2.6 4.3 0.00 0.00 0.00 72 1013.8
20260504035820 57 169 0.0 0.9 0.00 0.00 0.00 74 1014.0
20260504035318 57 153 1.7 2.6 0.00 0.00 0.00 74 1014.1
20260504034815 57 152 0.0 0.0 0.00 0.00 0.00 73 1013.8
20260504034313 57 155 0.0 0.9 0.00 0.00 0.00 74 1013.8
20260504033809 57 140 0.0 0.9 0.00 0.00 0.00 75 1013.8
20260504033308 57 134 0.0 0.0 0.00 0.00 0.00 75 1013.8
20260504032804 57 271 0.9 0.9 0.00 0.00 0.00 75 1013.8
20260504032301 57 214 0.0 0.0 0.00 0.00 0.00 76 1014.0
20260504031757 57 144 0.0 0.9 0.00 0.00 0.00 76 1013.8
20260504031255 57 133 0.0 0.0 0.00 0.00 0.00 75 1013.9
20260504030751 57 139 0.0 0.9 0.00 0.00 0.00 76 1013.7
20260504030248 57 306 0.0 0.9 0.00 0.00 0.00 76 1013.7
20260504025744 57 338 2.6 2.6 0.00 0.00 0.00 76 1013.6
20260504025242 57 295 1.7 2.6 0.00 0.00 0.00 76 1013.6
20260504024738 57 153 0.9 0.9 0.00 0.00 0.00 76 1013.7
20260504024235 57 291 1.7 1.7 0.00 0.00 0.00 76 1013.7
20260504023732 57 177 0.0 0.9 0.00 0.00 0.00 75 1013.5
20260504023228 57 319 1.7 1.7 0.00 0.00 0.00 74 1013.5
20260504022724 57 227 0.9 0.9 0.00 0.00 0.00 73 1013.6
20260504022220 57 154 1.7 1.7 0.00 0.00 0.00 72 1013.6
20260504021718 57 293 0.9 1.7 0.00 0.00 0.00 72 1013.5
20260504021215 57 151 0.0 0.0 0.00 0.00 0.00 72 1013.5
20260504020712 57 343 0.9 1.7 0.00 0.00 0.00 72 1013.5
20260504020208 57 175 2.6 2.6 0.00 0.00 0.00 71 1013.6
20260504015704 57 154 2.6 4.3 0.00 0.00 0.00 71 1013.5
20260504015201 57 192 4.3 6.1 0.00 0.00 0.00 70 1013.4
20260504014656 57 326 0.9 1.7 0.00 0.00 0.00 71 1013.4
20260504014154 57 217 0.9 0.9 0.00 0.00 0.00 72 1013.5
20260504013652 57 162 3.5 5.2 0.00 0.00 0.00 73 1013.4
20260504013148 57 315 1.7 2.6 0.00 0.00 0.00 71 1013.2
20260504012645 57 172 0.9 0.9 0.00 0.00 0.00 72 1013.2
20260504012143 57 1 3.5 6.1 0.00 0.00 0.00 73 1013.2
20260504011640 57 196 1.7 1.7 0.00 0.00 0.00 73 1013.4
20260504011136 57 260 0.9 1.7 0.00 0.00 0.00 74 1013.2
20260504010632 57 171 1.7 4.3 0.00 0.00 0.00 75 1013.4
20260504010128 56 190 1.7 4.3 0.00 0.00 0.00 76 1013.7
20260504005625 57 300 0.9 0.9 0.00 0.00 0.00 76 1013.3
20260504005122 57 174 0.9 1.7 0.00 0.00 0.00 75 1013.3
20260504004620 57 143 0.0 0.0 0.00 0.00 0.00 75 1013.6
20260504004117 57 321 2.6 4.3 0.00 0.00 0.00 74 1013.5
20260504003613 57 161 0.0 0.9 0.00 0.00 0.00 74 1013.5
20260504003110 57 244 2.6 5.2 0.00 0.00 0.00 74 1013.5
20260504002607 57 184 1.7 2.6 0.00 0.00 0.00 75 1013.5
20260504002105 57 272 2.6 2.6 0.00 0.00 0.00 75 1013.8
20260504001602 58 28 2.6 4.3 0.00 0.00 0.00 75 1013.9
20260504001057 58 297 3.5 6.1 0.00 0.00 0.00 75 1013.6
20260504000555 58 11 1.7 2.6 0.00 0.00 0.00 75 1013.7
20260504000053 58 147 0.9 1.7 0.00 0.00 0.00 75 1013.7
20260503235551 58 227 1.7 1.7 0.00 0.00 0.00 76 1013.7
20260503235047 58 162 0.0 0.0 0.00 0.00 0.00 75 1013.8
20260503234545 58 83 0.9 0.9 0.00 0.00 0.00 75 1013.5
20260503234043 58 225 1.7 1.7 0.00 0.00 0.00 74 1013.5
20260503233539 58 222 0.9 0.9 0.00 0.00 0.00 75 1013.6
20260503233035 59 152 0.9 0.9 0.00 0.00 0.00 74 1013.3
20260503232533 59 143 1.7 2.6 0.00 0.00 0.00 74 1013.5
20260503232030 59 299 1.7 1.7 0.00 0.00 0.00 72 1013.5
20260503231528 59 339 5.2 7.0 0.00 0.00 0.00 70 1013.6
20260503231024 59 322 1.7 2.6 0.00 0.00 0.00 70 1013.7
20260503230521 59 353 2.6 2.6 0.00 0.00 0.00 69 1013.7
20260503230018 58 298 2.6 6.1 0.00 0.00 0.00 69 1013.6
20260503225515 58 303 2.6 4.3 0.00 0.00 0.00 69 1013.8
20260503225010 58 232 1.7 1.7 0.00 0.00 0.00 69 1013.7
20260503224508 58 332 1.7 2.6 0.00 0.00 0.00 69 1013.5
20260503224005 58 49 2.6 5.2 0.00 0.00 0.00 68 1013.7
20260503223502 58 55 2.6 5.2 0.00 0.00 0.00 68 1013.6
20260503222952 58 336 2.6 4.3 0.00 0.00 0.00 66 1013.8
20260503222451 58 300 6.1 7.8 0.00 0.00 0.00 66 1013.9
20260503221949 58 199 1.7 2.6 0.00 0.00 0.00 67 1014.4
20260503221447 58 287 1.7 2.6 0.00 0.00 0.00 69 1014.0
20260503220944 58 313 0.9 2.6 0.00 0.00 0.00 70 1013.9
20260503220440 58 235 1.7 2.6 0.00 0.00 0.00 70 1014.2
20260503215937 58 310 1.7 2.6 0.00 0.00 0.00 72 1013.9
20260503215434 59 178 0.9 0.9 0.00 0.00 0.00 71 1014.0
20260503214932 59 186 0.9 0.9 0.00 0.00 0.00 71 1014.1
20260503214429 60 158 2.6 4.3 0.00 0.00 0.00 70 1014.1
20260503213926 60 263 3.5 4.3 0.00 0.00 0.00 69 1014.1
20260503213425 60 275 2.6 4.3 0.00 0.00 0.00 70 1014.2
20260503212920 60 316 0.0 1.7 0.00 0.00 0.00 71 1014.4
20260503212418 60 140 0.9 1.7 0.00 0.00 0.00 71 1014.4
20260503211915 60 179 0.9 0.9 0.00 0.00 0.00 71 1014.6
20260503211412 60 298 7.0 11.3 0.00 0.00 0.00 73 1014.4
20260503210906 60 315 2.6 4.3 0.00 0.00 0.00 75 1014.6
20260503210404 60 274 0.9 1.7 0.00 0.00 0.00 77 1014.5
20260503205859 59 20 1.7 2.6 0.00 0.00 0.00 80 1014.5
20260503205356 59 136 0.9 1.7 0.00 0.00 0.00 82 1014.5
20260503204853 59 36 1.7 2.6 0.00 0.00 0.00 83 1014.6
20260503204349 59 303 0.9 1.7 0.00 0.00 0.00 82 1014.4
20260503203847 60 169 1.7 2.6 0.00 0.00 0.00 81 1014.7
20260503203344 60 12 1.7 2.6 0.00 0.00 0.00 80 1014.4
20260503202841 59 313 3.5 6.1 0.00 0.00 0.00 81 1014.5
20260503202339 59 309 7.0 7.8 0.00 0.00 0.00 82 1014.3
20260503201837 60 294 4.3 7.0 0.00 0.00 0.00 82 1014.3
20260503201333 59 328 1.7 2.6 0.00 0.00 0.00 80 1014.4
20260503200831 60 103 0.9 0.9 0.00 0.00 0.00 79 1014.3
20260503200327 60 319 2.6 4.3 0.00 0.00 0.00 78 1014.2
20260503195825 60 314 2.6 4.3 0.00 0.01 0.01 78 1014.4
20260503195321 60 256 2.6 5.2 0.00 0.01 0.01 77 1014.5
20260503194819 60 279 6.1 7.8 0.00 0.01 0.01 77 1014.1
20260503194314 60 312 3.5 5.2 0.00 0.01 0.01 78 1014.1
20260503193810 60 331 2.6 4.3 0.00 0.01 0.01 78 1014.1
20260503193307 60 200 1.7 2.6 0.00 0.01 0.01 78 1014.1
20260503192803 60 166 1.7 4.3 0.00 0.01 0.01 78 1014.4
20260503192258 60 311 2.6 4.3 0.00 0.01 0.01 77 1014.0
20260503191755 60 295 0.9 1.7 0.00 0.01 0.01 77 1014.0
20260503191252 60 176 0.9 1.7 0.00 0.01 0.01 78 1014.0
20260503190748 60 282 4.3 6.1 0.00 0.01 0.01 78 1013.9
20260503190245 60 301 6.1 7.0 0.00 0.01 0.01 79 1014.0
20260503185742 60 290 4.3 6.1 0.00 0.01 0.01 80 1014.2
20260503185237 60 308 2.6 2.6 0.00 0.01 0.01 80 1013.8
20260503184732 60 299 4.3 7.0 0.00 0.01 0.01 80 1013.7
20260503184229 60 295 5.2 7.8 0.00 0.01 0.01 80 1014.1
20260503183725 60 188 0.9 2.6 0.00 0.01 0.01 81 1013.5
20260503183223 60 356 4.3 6.1 0.00 0.01 0.01 82 1013.8
20260503182721 60 290 2.6 5.2 0.00 0.01 0.01 85 1013.7
20260503182219 60 302 2.6 2.6 0.00 0.01 0.01 86 1013.7
20260503181715 60 296 6.1 7.8 0.05 0.01 0.01 87 1013.7
20260503181213 60 248 2.6 2.6 0.05 0.01 0.01 86 1013.5
20260503180709 61 14 2.6 4.3 0.00 0.00 0.00 84 1013.4
20260503180208 61 311 3.5 7.8 0.00 0.00 0.00 82 1013.2
20260503175704 61 310 1.7 2.6 0.00 0.00 0.00 81 1013.3
20260503175202 61 39 2.6 2.6 0.00 0.00 0.00 81 1013.5
20260503174657 61 26 2.6 2.6 0.00 0.00 0.00 83 1013.4
20260503174155 61 297 4.3 6.1 0.00 0.00 0.00 84 1013.2
20260503173650 61 301 3.5 5.2 0.00 0.00 0.00 85 1013.1
20260503173146 61 346 5.2 7.8 0.00 0.00 0.00 87 1013.1
20260503172644 61 300 5.2 6.1 0.00 0.00 0.00 88 1012.8
20260503172141 61 222 0.9 0.9 0.00 0.00 0.00 88 1012.7
20260503171637 61 289 0.9 1.7 0.00 0.00 0.00 88 1012.5
20260503171135 61 62 0.9 1.7 0.00 0.00 0.00 88 1012.4
20260503170632 61 325 2.6 4.3 0.00 0.00 0.00 88 1012.5
20260503170128 61 132 2.6 4.3 0.00 0.00 0.00 88 1012.5
20260503150520 62 313 4.3 5.2 0.00 0.00 0.00 93 1011.6
20260503131413 70 154 1.7 2.6 0.00 0.00 0.00 74 1010.4
20260503130910 71 307 6.1 8.7 0.00 0.00 0.00 74 1010.5
20260503130407 70 278 1.7 1.7 0.00 0.00 0.00 75 1010.5